sat.trackr.live / text

‹ back to catalog

STARLINK-1570

NORAD 46059 · 2020-055AJ

PAYLOAD ACTIVE UNKNOWN

§ Identity

Operator
Country
US
Launch date
2020-08-07
Launch site
AFETR
Launch vehicle
Mass (kg)
RCS (m²)

Purposes: comms

External: N2YO · Heavens-Above · Gunter

§ Orbital elements

Epoch: 2026-09-20T01:27:26.252064Z

Period
94.01 min
Inclination
53.1580°
Eccentricity
0.0001166
Mean motion
15.31704450 rev/d
Perigee alt
469.9 km
Apogee alt
471.5 km
Semi-major
6,848.9 km
B*
1.1469e-4
RAAN
289.3459°
Arg perigee
82.2328°
Mean anomaly
277.8806°
Rev number
33,881

§ Raw data

STARLINK-15701 46059U 20055AJ  26263.06072051  .00003196  00000+0  11469-3 0  99982 46059  53.1580 289.3459 0001166  82.2328 277.8806 15.31704450338818

JSON: /api/v1/satellites/46059 · /tle

For live sub-satellite position, see the globe view (requires WebGL).

§ Visibility from observer

Set your observer location to see the next 7 days of passes ≥ 10°. The values pass through the URL so the page stays shareable.

No JS? Fill the form by hand. The geolocation button needs JavaScript.